Donnes mto: Actuelle mardi, 21/08/2018 14:15
Date Horaire Temp. E. Hum. E. P.atmo. Pluie Vent Direction Direction Ensoleilleme Ev.Tr. Solaire P. de rose Temp au vent Rafales
21/08/2018 14:15 29,7 C 51 % 1017,1 hPa 0,0 mm 1,3 km/h (1 Bft) E-NE 71 5 min 0,000 mm 817 W/m 18,5 C 29,7 C 6,4 km/h (2 Bft)
21/08/2018 14:10 30,2 C 51 % 1017,1 hPa 0,0 mm 1,9 km/h (1 Bft) E-NE 65 5 min 0,000 mm 817 W/m 18,9 C 30,2 C 8,0 km/h (2 Bft)
21/08/2018 14:05 30,3 C 51 % 1017,2 hPa 0,0 mm 2,5 km/h (1 Bft) S-SE 147 5 min 0,000 mm 817 W/m 19,0 C 30,3 C 8,0 km/h (2 Bft)
21/08/2018 14:00 29,9 C 52 % 1017,2 hPa 0,0 mm 1,5 km/h (1 Bft) SO 216 5 min 0,559 mm 817 W/m 19,0 C 29,9 C 6,4 km/h (2 Bft)
21/08/2018 13:55 29,4 C 53 % 1017,2 hPa 0,0 mm 3,2 km/h (1 Bft) SO 214 5 min 0,000 mm 817 W/m 18,8 C 29,4 C 8,0 km/h (2 Bft)
21/08/2018 13:50 29,6 C 52 % 1017,2 hPa 0,0 mm 1,5 km/h (1 Bft) NO 305 5 min 0,000 mm 812 W/m 18,7 C 29,6 C 6,4 km/h (2 Bft)
21/08/2018 13:45 29,7 C 53 % 1017,3 hPa 0,0 mm 3,8 km/h (1 Bft) NO 304 5 min 0,000 mm 812 W/m 19,1 C 29,7 C 8,0 km/h (2 Bft)
21/08/2018 13:40 29,1 C 55 % 1017,3 hPa 0,0 mm 4,7 km/h (1 Bft) O-SO 251 5 min 0,000 mm 809 W/m 19,1 C 29,1 C 9,7 km/h (2 Bft)
21/08/2018 13:35 28,5 C 55 % 1017,4 hPa 0,0 mm 3,8 km/h (1 Bft) O-NO 296 5 min 0,000 mm 809 W/m 18,6 C 28,5 C 8,0 km/h (2 Bft)
21/08/2018 13:30 28,4 C 56 % 1017,4 hPa 0,0 mm 1,9 km/h (1 Bft) S-SE 164 5 min 0,000 mm 809 W/m 18,8 C 28,4 C 8,0 km/h (2 Bft)
21/08/2018 13:25 28,5 C 55 % 1017,5 hPa 0,0 mm 1,5 km/h (1 Bft) E-NE 66 5 min 0,000 mm 805 W/m 18,6 C 28,5 C 6,4 km/h (2 Bft)
21/08/2018 13:20 28,9 C 55 % 1017,5 hPa 0,0 mm 1,6 km/h (1 Bft) E 87 5 min 0,000 mm 803 W/m 18,9 C 28,9 C 4,8 km/h (1 Bft)
21/08/2018 13:15 29,1 C 55 % 1017,6 hPa 0,0 mm 1,5 km/h (1 Bft) O-NO 299 5 min 0,000 mm 798 W/m 19,1 C 29,1 C 6,4 km/h (2 Bft)
21/08/2018 13:10 28,6 C 56 % 1017,7 hPa 0,0 mm 1,1 km/h (1 Bft) E-NE 75 5 min 0,000 mm 796 W/m 18,9 C 28,6 C 6,4 km/h (2 Bft)
21/08/2018 13:05 28,2 C 56 % 1017,7 hPa 0,0 mm 2,9 km/h (1 Bft) S 174 5 min 0,000 mm 789 W/m 18,6 C 28,2 C 6,4 km/h (2 Bft)
21/08/2018 13:00 28,0 C 59 % 1017,8 hPa 0,0 mm 2,4 km/h (1 Bft) O-SO 256 5 min 0,483 mm 782 W/m 19,2 C 28,0 C 8,0 km/h (2 Bft)
21/08/2018 12:55 27,9 C 58 % 1017,8 hPa 0,0 mm 3,9 km/h (1 Bft) NO 317 5 min 0,000 mm 780 W/m 18,9 C 27,9 C 9,7 km/h (2 Bft)
21/08/2018 12:50 27,8 C 58 % 1017,8 hPa 0,0 mm 2,2 km/h (1 Bft) N 4 5 min 0,000 mm 773 W/m 18,8 C 27,8 C 6,4 km/h (2 Bft)
21/08/2018 12:45 28,3 C 57 % 1017,9 hPa 0,0 mm 1,0 km/h (0 Bft) N-NO 343 5 min 0,000 mm 770 W/m 18,9 C 28,3 C 3,2 km/h (1 Bft)
21/08/2018 12:40 27,7 C 60 % 1018,0 hPa 0,0 mm 2,5 km/h (1 Bft) N-NO 328 5 min 0,000 mm 765 W/m 19,2 C 27,7 C 8,0 km/h (2 Bft)
21/08/2018 12:35 26,9 C 61 % 1018,0 hPa 0,0 mm 2,1 km/h (1 Bft) O-NO 291 5 min 0,000 mm 756 W/m 18,7 C 26,9 C 4,8 km/h (1 Bft)
21/08/2018 12:30 26,9 C 60 % 1018,0 hPa 0,0 mm 2,0 km/h (1 Bft) E 95 5 min 0,000 mm 751 W/m 18,5 C 26,9 C 8,0 km/h (2 Bft)
21/08/2018 12:25 26,7 C 62 % 1018,0 hPa 0,0 mm 1,6 km/h (1 Bft) E-NE 67 5 min 0,000 mm 744 W/m 18,8 C 26,7 C 6,4 km/h (2 Bft)
21/08/2018 12:20 26,7 C 61 % 1018,1 hPa 0,0 mm 3,1 km/h (1 Bft) O 280 5 min 0,000 mm 737 W/m 18,5 C 26,7 C 8,0 km/h (2 Bft)
21/08/2018 12:15 26,8 C 61 % 1018,2 hPa 0,0 mm 0,3 km/h (0 Bft) O 262 5 min 0,000 mm 728 W/m 18,6 C 26,8 C 1,6 km/h (1 Bft)
21/08/2018 12:10 26,8 C 61 % 1018,3 hPa 0,0 mm 1,0 km/h (0 Bft) O 262 5 min 0,000 mm 719 W/m 18,6 C 26,8 C 3,2 km/h (1 Bft)
21/08/2018 12:05 26,5 C 62 % 1018,3 hPa 0,0 mm 3,0 km/h (1 Bft) O 261 5 min 0,000 mm 712 W/m 18,6 C 26,5 C 8,0 km/h (2 Bft)
21/08/2018 12:00 26,3 C 62 % 1018,4 hPa 0,0 mm 0,8 km/h (0 Bft) NE 40 5 min 0,406 mm 701 W/m 18,4 C 26,3 C 4,8 km/h (1 Bft)
21/08/2018 11:55 26,1 C 64 % 1018,4 hPa 0,0 mm 1,6 km/h (1 Bft) E-NE 64 5 min 0,000 mm 691 W/m 18,7 C 26,1 C 6,4 km/h (2 Bft)
21/08/2018 11:50 26,2 C 63 % 1018,5 hPa 0,0 mm 2,1 km/h (1 Bft) E-SE 102 5 min 0,000 mm 682 W/m 18,6 C 26,2 C 6,4 km/h (2 Bft)
21/08/2018 11:45 26,3 C 63 % 1018,5 hPa 0,0 mm 1,0 km/h (0 Bft) N-NO 335 5 min 0,000 mm 671 W/m 18,7 C 26,3 C 3,2 km/h (1 Bft)
21/08/2018 11:40 25,7 C 64 % 1018,5 hPa 0,0 mm 1,6 km/h (1 Bft) O-NO 303 5 min 0,000 mm 663 W/m 18,4 C 25,7 C 6,4 km/h (2 Bft)
21/08/2018 11:35 25,6 C 64 % 1018,5 hPa 0,0 mm 0,3 km/h (0 Bft) E 96 5 min 0,000 mm 654 W/m 18,3 C 25,6 C 1,6 km/h (1 Bft)
21/08/2018 11:30 25,3 C 65 % 1018,6 hPa 0,0 mm 0,7 km/h (0 Bft) E 97 5 min 0,000 mm 642 W/m 18,2 C 25,3 C 3,2 km/h (1 Bft)
21/08/2018 11:25 25,2 C 65 % 1018,6 hPa 0,0 mm 0,6 km/h (0 Bft) E 97 5 min 0,000 mm 633 W/m 18,1 C 25,2 C 4,8 km/h (1 Bft)
21/08/2018 11:20 24,9 C 67 % 1018,6 hPa 0,0 mm 0,7 km/h (0 Bft) N-NO 347 5 min 0,000 mm 621 W/m 18,3 C 24,9 C 3,2 km/h (1 Bft)
21/08/2018 11:15 25,2 C 65 % 1018,7 hPa 0,0 mm 0,9 km/h (0 Bft) N-NO 347 5 min 0,000 mm 608 W/m 18,1 C 25,2 C 3,2 km/h (1 Bft)
21/08/2018 11:10 25,3 C 67 % 1018,7 hPa 0,0 mm 1,3 km/h (1 Bft) NO 323 5 min 0,000 mm 596 W/m 18,7 C 25,3 C 4,8 km/h (1 Bft)
21/08/2018 11:05 24,9 C 68 % 1018,7 hPa 0,0 mm 0,6 km/h (0 Bft) N 4 5 min 0,000 mm 585 W/m 18,6 C 24,9 C 3,2 km/h (1 Bft)
21/08/2018 11:00 24,8 C 69 % 1018,8 hPa 0,0 mm 1,1 km/h (1 Bft) NO 317 5 min 0,280 mm 573 W/m 18,7 C 24,8 C 4,8 km/h (1 Bft)
21/08/2018 10:55 24,4 C 69 % 1018,8 hPa 0,0 mm 2,3 km/h (1 Bft) NO 316 5 min 0,000 mm 561 W/m 18,3 C 24,4 C 8,0 km/h (2 Bft)
21/08/2018 10:50 23,8 C 71 % 1018,9 hPa 0,0 mm 1,5 km/h (1 Bft) E 90 5 min 0,000 mm 548 W/m 18,2 C 23,8 C 3,2 km/h (1 Bft)
21/08/2018 10:45 23,8 C 71 % 1019,0 hPa 0,0 mm 1,9 km/h (1 Bft) E 98 5 min 0,000 mm 536 W/m 18,2 C 23,8 C 8,0 km/h (2 Bft)
21/08/2018 10:40 24,0 C 71 % 1018,9 hPa 0,0 mm 0,4 km/h (0 Bft) NE 36 5 min 0,000 mm 522 W/m 18,4 C 24,0 C 1,6 km/h (1 Bft)
21/08/2018 10:35 23,7 C 72 % 1019,0 hPa 0,0 mm 0,2 km/h (0 Bft) NE 37 5 min 0,000 mm 501 W/m 18,3 C 23,7 C 1,6 km/h (1 Bft)
21/08/2018 10:30 23,4 C 73 % 1019,0 hPa 0,0 mm 0,4 km/h (0 Bft) E 80 5 min 0,000 mm 462 W/m 18,3 C 23,4 C 3,2 km/h (1 Bft)
21/08/2018 10:25 23,2 C 74 % 1018,9 hPa 0,0 mm 0,0 km/h (0 Bft) N-NE 15 5 min 0,000 mm 397 W/m 18,3 C 23,2 C 0,0 km/h (0 Bft)
21/08/2018 10:20 22,9 C 74 % 1019,0 hPa 0,0 mm 0,0 km/h (0 Bft) E-NE 64 5 min 0,000 mm 343 W/m 18,0 C 22,9 C 0,0 km/h (0 Bft)
21/08/2018 10:15 22,7 C 75 % 1019,0 hPa 0,0 mm 0,0 km/h (0 Bft) E-NE 64 5 min 0,000 mm 311 W/m 18,0 C 22,7 C 0,0 km/h (0 Bft)
21/08/2018 10:10 22,4 C 75 % 1018,9 hPa 0,0 mm 0,0 km/h (0 Bft) E-NE 64 5 min 0,000 mm 309 W/m 17,7 C 22,4 C 0,0 km/h (0 Bft)
21/08/2018 10:05 22,3 C 76 % 1018,9 hPa 0,0 mm 0,2 km/h (0 Bft) E-NE 64 5 min 0,000 mm 318 W/m 17,9 C 22,3 C 3,2 km/h (1 Bft)
21/08/2018 10:00 22,2 C 77 % 1018,9 hPa 0,0 mm 0,4 km/h (0 Bft) E 83 5 min 0,177 mm 308 W/m 18,0 C 22,2 C 1,6 km/h (1 Bft)
21/08/2018 09:55 22,0 C 78 % 1018,9 hPa 0,0 mm 0,3 km/h (0 Bft) E 81 5 min 0,000 mm 267 W/m 18,0 C 22,0 C 1,6 km/h (1 Bft)
21/08/2018 09:50 21,6 C 78 % 1018,9 hPa 0,0 mm 0,6 km/h (0 Bft) E 82 0 min 0,000 mm 237 W/m 17,6 C 21,6 C 1,6 km/h (1 Bft)
21/08/2018 09:45 21,3 C 80 % 1018,9 hPa 0,0 mm 0,5 km/h (0 Bft) E 83 5 min 0,000 mm 294 W/m 17,7 C 21,3 C 3,2 km/h (1 Bft)
21/08/2018 09:40 21,1 C 80 % 1018,9 hPa 0,0 mm 0,5 km/h (0 Bft) E 83 5 min 0,000 mm 313 W/m 17,5 C 21,1 C 3,2 km/h (1 Bft)
21/08/2018 09:35 21,0 C 81 % 1018,9 hPa 0,0 mm 0,3 km/h (0 Bft) E 83 5 min 0,000 mm 318 W/m 17,6 C 21,0 C 1,6 km/h (1 Bft)
21/08/2018 09:30 20,7 C 82 % 1018,9 hPa 0,0 mm 0,0 km/h (0 Bft) E 85 5 min 0,000 mm 320 W/m 17,5 C 20,7 C 0,0 km/h (0 Bft)
21/08/2018 09:25 20,3 C 83 % 1018,9 hPa 0,0 mm 0,2 km/h (0 Bft) E 85 5 min 0,000 mm 315 W/m 17,3 C 20,3 C 1,6 km/h (1 Bft)
21/08/2018 09:20 20,1 C 83 % 1018,9 hPa 0,0 mm 0,4 km/h (0 Bft) E 85 5 min 0,000 mm 301 W/m 17,1 C 20,1 C 3,2 km/h (1 Bft)
21/08/2018 09:15 19,8 C 85 % 1018,8 hPa 0,0 mm 0,1 km/h (0 Bft) E 85 5 min 0,000 mm 287 W/m 17,2 C 19,8 C 1,6 km/h (1 Bft)
21/08/2018 09:10 19,5 C 86 % 1018,8 hPa 0,0 mm 0,2 km/h (0 Bft) E 85 5 min 0,000 mm 265 W/m 17,1 C 19,5 C 1,6 km/h (1 Bft)
21/08/2018 09:05 19,2 C 88 % 1018,7 hPa 0,0 mm 0,0 km/h (0 Bft) E 85 5 min 0,000 mm 223 W/m 17,2 C 19,2 C 1,6 km/h (1 Bft)
21/08/2018 09:00 18,9 C 89 % 1018,8 hPa 0,0 mm 0,0 km/h (0 Bft) E 85 5 min 0,051 mm 188 W/m 17,0 C 18,9 C 1,6 km/h (1 Bft)
21/08/2018 08:55 18,6 C 91 % 1018,7 hPa 0,0 mm 0,0 km/h (0 Bft) E 85 5 min 0,000 mm 183 W/m 17,1 C 18,6 C 1,6 km/h (1 Bft)
21/08/2018 08:50 18,2 C 92 % 1018,7 hPa 0,0 mm 0,2 km/h (0 Bft) E 85 5 min 0,000 mm 190 W/m 16,9 C 18,2 C 1,6 km/h (1 Bft)
21/08/2018 08:45 17,8 C 94 % 1018,6 hPa 0,0 mm 0,0 km/h (0 Bft) E 85 5 min 0,000 mm 188 W/m 16,8 C 17,8 C 0,0 km/h (0 Bft)
21/08/2018 08:40 17,4 C 95 % 1018,7 hPa 0,0 mm 0,0 km/h (0 Bft) E 85 5 min 0,000 mm 174 W/m 16,6 C 17,4 C 1,6 km/h (1 Bft)
21/08/2018 08:35 17,1 C 95 % 1018,7 hPa 0,0 mm 0,1 km/h (0 Bft) E 85 0 min 0,000 mm 84 W/m 16,3 C 17,1 C 1,6 km/h (1 Bft)
21/08/2018 08:30 16,8 C 96 % 1018,8 hPa 0,0 mm 0,1 km/h (0 Bft) E 85 0 min 0,000 mm 33 W/m 16,2 C 16,8 C 1,6 km/h (1 Bft)
21/08/2018 08:25 16,6 C 96 % 1018,7 hPa 0,0 mm 0,0 km/h (0 Bft) E 85 0 min 0,000 mm 32 W/m 16,0 C 16,6 C 1,6 km/h (1 Bft)
21/08/2018 08:20 16,4 C 96 % 1018,7 hPa 0,0 mm 0,1 km/h (0 Bft) E 85 0 min 0,000 mm 30 W/m 15,8 C 16,4 C 1,6 km/h (1 Bft)
21/08/2018 08:15 16,2 C 96 % 1018,7 hPa 0,0 mm 0,1 km/h (0 Bft) E 85 0 min 0,000 mm 30 W/m 15,6 C 16,2 C 1,6 km/h (1 Bft)
21/08/2018 08:10 16,0 C 96 % 1018,7 hPa 0,0 mm 0,1 km/h (0 Bft) E 85 0 min 0,000 mm 62 W/m 15,4 C 16,0 C 1,6 km/h (1 Bft)
21/08/2018 08:05 15,8 C 96 % 1018,6 hPa 0,0 mm 0,0 km/h (0 Bft) E 85 0 min 0,000 mm 33 W/m 15,2 C 15,8 C 0,0 km/h (0 Bft)
21/08/2018 08:00 15,7 C 96 % 1018,6 hPa 0,0 mm 0,0 km/h (0 Bft) E 85 0 min 0,000 mm 25 W/m 15,1 C 15,7 C 0,0 km/h (0 Bft)
21/08/2018 07:55 15,7 C 96 % 1018,6 hPa 0,0 mm 0,0 km/h (0 Bft) E 85 0 min 0,000 mm 23 W/m 15,1 C 15,7 C 0,0 km/h (0 Bft)
21/08/2018 07:50 15,7 C 96 % 1018,6 hPa 0,0 mm 0,0 km/h (0 Bft) E 85 0 min 0,000 mm 21 W/m 15,1 C 15,7 C 1,6 km/h (1 Bft)
21/08/2018 07:45 15,7 C 96 % 1018,6 hPa 0,0 mm 0,0 km/h (0 Bft) E 85 0 min 0,000 mm 19 W/m 15,1 C 15,7 C 0,0 km/h (0 Bft)
21/08/2018 07:40 15,6 C 96 % 1018,6 hPa 0,0 mm 0,0 km/h (0 Bft) E 85 0 min 0,000 mm 19 W/m 15,0 C 15,6 C 0,0 km/h (0 Bft)
21/08/2018 07:35 15,6 C 96 % 1018,6 hPa 0,0 mm 0,0 km/h (0 Bft) E 85 0 min 0,000 mm 18 W/m 15,0 C 15,6 C 0,0 km/h (0 Bft)
21/08/2018 07:30 15,5 C 96 % 1018,5 hPa 0,0 mm 0,0 km/h (0 Bft) E 85 0 min 0,000 mm 14 W/m 14,9 C 15,5 C 0,0 km/h (0 Bft)
21/08/2018 07:25 15,4 C 96 % 1018,5 hPa 0,0 mm 0,0 km/h (0 Bft) E 85 0 min 0,000 mm 11 W/m 14,8 C 15,4 C 0,0 km/h (0 Bft)
21/08/2018 07:20 15,4 C 95 % 1018,4 hPa 0,0 mm 0,0 km/h (0 Bft) E 85 0 min 0,000 mm 9 W/m 14,6 C 15,4 C 0,0 km/h (0 Bft)
21/08/2018 07:15 15,4 C 95 % 1018,3 hPa 0,0 mm 0,0 km/h (0 Bft) E 85 0 min 0,000 mm 5 W/m 14,6 C 15,4 C 0,0 km/h (0 Bft)
21/08/2018 07:10 15,3 C 95 % 1018,2 hPa 0,0 mm 0,0 km/h (0 Bft) E 85 0 min 0,000 mm 0 W/m 14,5 C 15,3 C 0,0 km/h (0 Bft)
21/08/2018 07:05 15,3 C 95 % 1018,1 hPa 0,0 mm 0,0 km/h (0 Bft) E 85 0 min 0,000 mm 0 W/m 14,5 C 15,3 C 0,0 km/h (0 Bft)
21/08/2018 07:00 15,4 C 95 % 1018,1 hPa 0,0 mm 0,0 km/h (0 Bft) E 85 0 min 0,000 mm 0 W/m 14,6 C 15,4 C 0,0 km/h (0 Bft)
21/08/2018 06:55 15,4 C 95 % 1018,1 hPa 0,0 mm 0,0 km/h (0 Bft) E 85 0 min 0,000 mm 0 W/m 14,6 C 15,4 C 0,0 km/h (0 Bft)
21/08/2018 06:50 15,5 C 95 % 1018,1 hPa 0,0 mm 0,4 km/h (0 Bft) E 85 0 min 0,000 mm 0 W/m 14,7 C 15,5 C 1,6 km/h (1 Bft)
21/08/2018 06:45 15,6 C 95 % 1018,0 hPa 0,0 mm 0,3 km/h (0 Bft) E 85 0 min 0,000 mm 0 W/m 14,8 C 15,6 C 1,6 km/h (1 Bft)
21/08/2018 06:40 15,6 C 95 % 1018,0 hPa 0,0 mm 0,0 km/h (0 Bft) E 85 0 min 0,000 mm 0 W/m 14,8 C 15,6 C 0,0 km/h (0 Bft)
21/08/2018 06:35 15,7 C 95 % 1018,0 hPa 0,0 mm 0,0 km/h (0 Bft) E 85 0 min 0,000 mm 0 W/m 14,9 C 15,7 C 0,0 km/h (0 Bft)
21/08/2018 06:30 15,7 C 95 % 1018,0 hPa 0,0 mm 0,0 km/h (0 Bft) E 85 0 min 0,000 mm 0 W/m 14,9 C 15,7 C 1,6 km/h (1 Bft)
21/08/2018 06:25 15,8 C 95 % 1018,0 hPa 0,0 mm 0,0 km/h (0 Bft) E 85 0 min 0,000 mm 0 W/m 15,0 C 15,8 C 0,0 km/h (0 Bft)
21/08/2018 06:20 15,8 C 94 % 1018,0 hPa 0,0 mm 0,0 km/h (0 Bft) E 85 0 min 0,000 mm 0 W/m 14,8 C 15,8 C 0,0 km/h (0 Bft)
21/08/2018 06:15 15,9 C 94 % 1018,0 hPa 0,0 mm 0,3 km/h (0 Bft) E 85 0 min 0,000 mm 0 W/m 14,9 C 15,9 C 1,6 km/h (1 Bft)
21/08/2018 06:10 16,0 C 94 % 1018,0 hPa 0,0 mm 0,0 km/h (0 Bft) E 85 0 min 0,000 mm 0 W/m 15,0 C 16,0 C 0,0 km/h (0 Bft)
21/08/2018 06:05 16,1 C 94 % 1018,0 hPa 0,0 mm 0,0 km/h (0 Bft) E 85 0 min 0,000 mm 0 W/m 15,1 C 16,1 C 1,6 km/h (1 Bft)
21/08/2018 06:00 16,1 C 94 % 1018,0 hPa 0,0 mm 0,0 km/h (0 Bft) E 85 0 min 0,000 mm 0 W/m 15,1 C 16,1 C 0,0 km/h (0 Bft)
21/08/2018 05:55 16,2 C 94 % 1017,9 hPa 0,0 mm 0,0 km/h (0 Bft) E 85 0 min 0,000 mm 0 W/m 15,2 C 16,2 C 0,0 km/h (0 Bft)
21/08/2018 05:50 16,2 C 94 % 1018,0 hPa 0,0 mm 0,1 km/h (0 Bft) E 85 0 min 0,000 mm 0 W/m 15,2 C 16,2 C 1,6 km/h (1 Bft)
21/08/2018 05:45 16,3 C 94 % 1018,0 hPa 0,0 mm 0,0 km/h (0 Bft) E 86 0 min 0,000 mm 0 W/m 15,3 C 16,3 C 0,0 km/h (0 Bft)
21/08/2018 05:40 16,3 C 94 % 1017,9 hPa 0,0 mm 0,0 km/h (0 Bft) E 85 0 min 0,000 mm 0 W/m 15,3 C 16,3 C 0,0 km/h (0 Bft)
21/08/2018 05:35 16,4 C 94 % 1018,0 hPa 0,0 mm 0,0 km/h (0 Bft) E 85 0 min 0,000 mm 0 W/m 15,4 C 16,4 C 0,0 km/h (0 Bft)
21/08/2018 05:30 16,4 C 94 % 1018,0 hPa 0,0 mm 0,0 km/h (0 Bft) E 85 0 min 0,000 mm 0 W/m 15,4 C 16,4 C 0,0 km/h (0 Bft)
21/08/2018 05:25 16,4 C 95 % 1018,0 hPa 0,0 mm 0,0 km/h (0 Bft) E 85 0 min 0,000 mm 0 W/m 15,6 C 16,4 C 0,0 km/h (0 Bft)
21/08/2018 05:20 16,3 C 95 % 1018,1 hPa 0,0 mm 0,0 km/h (0 Bft) E 85 0 min 0,000 mm 0 W/m 15,5 C 16,3 C 0,0 km/h (0 Bft)
21/08/2018 05:15 16,2 C 94 % 1018,0 hPa 0,0 mm 0,0 km/h (0 Bft) E 85 0 min 0,000 mm 0 W/m 15,2 C 16,2 C 0,0 km/h (0 Bft)
21/08/2018 05:10 16,2 C 94 % 1018,1 hPa 0,0 mm 0,0 km/h (0 Bft) E 85 0 min 0,000 mm 0 W/m 15,2 C 16,2 C 0,0 km/h (0 Bft)
21/08/2018 05:05 16,2 C 94 % 1018,1 hPa 0,0 mm 0,0 km/h (0 Bft) E 85 0 min 0,000 mm 0 W/m 15,2 C 16,2 C 0,0 km/h (0 Bft)
21/08/2018 05:00 16,2 C 94 % 1018,2 hPa 0,0 mm 0,0 km/h (0 Bft) E 85 0 min 0,000 mm 0 W/m 15,2 C 16,2 C 0,0 km/h (0 Bft)
21/08/2018 04:55 16,2 C 93 % 1018,2 hPa 0,0 mm 0,0 km/h (0 Bft) E 85 0 min 0,000 mm 0 W/m 15,1 C 16,2 C 0,0 km/h (0 Bft)
21/08/2018 04:50 16,3 C 93 % 1018,2 hPa 0,0 mm 0,0 km/h (0 Bft) E 85 0 min 0,000 mm 0 W/m 15,2 C 16,3 C 0,0 km/h (0 Bft)
21/08/2018 04:45 16,3 C 93 % 1018,3 hPa 0,0 mm 0,0 km/h (0 Bft) E 85 0 min 0,000 mm 0 W/m 15,2 C 16,3 C 0,0 km/h (0 Bft)
21/08/2018 04:40 16,3 C 93 % 1018,3 hPa 0,0 mm 0,0 km/h (0 Bft) E 85 0 min 0,000 mm 0 W/m 15,2 C 16,3 C 0,0 km/h (0 Bft)
21/08/2018 04:35 16,4 C 93 % 1018,3 hPa 0,0 mm 0,1 km/h (0 Bft) E 85 0 min 0,000 mm 0 W/m 15,3 C 16,4 C 1,6 km/h (1 Bft)
21/08/2018 04:30 16,5 C 92 % 1018,4 hPa 0,0 mm 0,2 km/h (0 Bft) E 85 0 min 0,000 mm 0 W/m 15,2 C 16,5 C 1,6 km/h (1 Bft)
21/08/2018 04:25 16,6 C 93 % 1018,4 hPa 0,0 mm 0,0 km/h (0 Bft) E 85 0 min 0,000 mm 0 W/m 15,5 C 16,6 C 0,0 km/h (0 Bft)
21/08/2018 04:20 16,7 C 93 % 1018,4 hPa 0,0 mm 0,0 km/h (0 Bft) E 85 0 min 0,000 mm 0 W/m 15,6 C 16,7 C 0,0 km/h (0 Bft)
21/08/2018 04:15 16,7 C 92 % 1018,6 hPa 0,0 mm 0,3 km/h (0 Bft) E 85 0 min 0,000 mm 0 W/m 15,4 C 16,7 C 1,6 km/h (1 Bft)
21/08/2018 04:10 16,8 C 93 % 1018,7 hPa 0,0 mm 1,3 km/h (1 Bft) E 85 0 min 0,000 mm 0 W/m 15,7 C 16,8 C 3,2 km/h (1 Bft)
21/08/2018 04:05 16,7 C 92 % 1018,6 hPa 0,0 mm 0,0 km/h (0 Bft) E 93 0 min 0,000 mm 0 W/m 15,4 C 16,7 C 0,0 km/h (0 Bft)
21/08/2018 04:00 16,8 C 92 % 1018,7 hPa 0,0 mm 0,0 km/h (0 Bft) E 92 0 min 0,000 mm 0 W/m 15,5 C 16,8 C 0,0 km/h (0 Bft)
21/08/2018 03:55 16,8 C 92 % 1018,7 hPa 0,0 mm 0,0 km/h (0 Bft) E 93 0 min 0,000 mm 0 W/m 15,5 C 16,8 C 0,0 km/h (0 Bft)
21/08/2018 03:50 16,8 C 92 % 1018,7 hPa 0,0 mm 0,0 km/h (0 Bft) E 93 0 min 0,000 mm 0 W/m 15,5 C 16,8 C 0,0 km/h (0 Bft)
21/08/2018 03:45 16,9 C 92 % 1018,8 hPa 0,0 mm 0,0 km/h (0 Bft) E 93 0 min 0,000 mm 0 W/m 15,6 C 16,9 C 0,0 km/h (0 Bft)
21/08/2018 03:40 16,9 C 92 % 1018,8 hPa 0,0 mm 0,0 km/h (0 Bft) E 93 0 min 0,000 mm 0 W/m 15,6 C 16,9 C 0,0 km/h (0 Bft)
21/08/2018 03:35 16,9 C 92 % 1018,7 hPa 0,0 mm 0,0 km/h (0 Bft) E 93 0 min 0,000 mm 0 W/m 15,6 C 16,9 C 0,0 km/h (0 Bft)
21/08/2018 03:30 16,9 C 92 % 1018,8 hPa 0,0 mm 0,0 km/h (0 Bft) E 93 0 min 0,000 mm 0 W/m 15,6 C 16,9 C 0,0 km/h (0 Bft)
21/08/2018 03:25 16,9 C 91 % 1018,8 hPa 0,0 mm 0,0 km/h (0 Bft) E 93 0 min 0,000 mm 0 W/m 15,4 C 16,9 C 0,0 km/h (0 Bft)
21/08/2018 03:20 17,0 C 91 % 1018,8 hPa 0,0 mm 0,0 km/h (0 Bft) E 97 0 min 0,000 mm 0 W/m 15,5 C 17,0 C 0,0 km/h (0 Bft)
21/08/2018 03:15 17,1 C 90 % 1018,9 hPa 0,0 mm 0,0 km/h (0 Bft) E 97 0 min 0,000 mm 0 W/m 15,4 C 17,1 C 0,0 km/h (0 Bft)
21/08/2018 03:10 17,1 C 90 % 1018,9 hPa 0,0 mm 0,0 km/h (0 Bft) E 97 0 min 0,000 mm 0 W/m 15,4 C 17,1 C 0,0 km/h (0 Bft)
21/08/2018 03:05 17,2 C 90 % 1018,9 hPa 0,0 mm 0,0 km/h (0 Bft) E 97 0 min 0,000 mm 0 W/m 15,5 C 17,2 C 0,0 km/h (0 Bft)
21/08/2018 03:00 17,3 C 90 % 1019,0 hPa 0,0 mm 0,0 km/h (0 Bft) E 97 0 min 0,000 mm 0 W/m 15,6 C 17,3 C 0,0 km/h (0 Bft)
21/08/2018 02:55 17,4 C 89 % 1019,1 hPa 0,0 mm 0,0 km/h (0 Bft) E 97 0 min 0,000 mm 0 W/m 15,6 C 17,4 C 0,0 km/h (0 Bft)
21/08/2018 02:50 17,5 C 89 % 1019,1 hPa 0,0 mm 0,0 km/h (0 Bft) E 97 0 min 0,000 mm 0 W/m 15,7 C 17,5 C 0,0 km/h (0 Bft)
21/08/2018 02:45 17,6 C 89 % 1019,1 hPa 0,0 mm 0,0 km/h (0 Bft) E 97 0 min 0,000 mm 0 W/m 15,8 C 17,6 C 0,0 km/h (0 Bft)
21/08/2018 02:40 17,7 C 89 % 1019,2 hPa 0,0 mm 0,0 km/h (0 Bft) E 97 0 min 0,000 mm 0 W/m 15,9 C 17,7 C 0,0 km/h (0 Bft)
21/08/2018 02:35 17,8 C 88 % 1019,2 hPa 0,0 mm 0,0 km/h (0 Bft) E 97 0 min 0,000 mm 0 W/m 15,8 C 17,8 C 0,0 km/h (0 Bft)
21/08/2018 02:30 17,8 C 88 % 1019,3 hPa 0,0 mm 0,0 km/h (0 Bft) E 97 0 min 0,000 mm 0 W/m 15,8 C 17,8 C 0,0 km/h (0 Bft)
21/08/2018 02:25 17,9 C 88 % 1019,4 hPa 0,0 mm 0,0 km/h (0 Bft) E 97 0 min 0,000 mm 0 W/m 15,9 C 17,9 C 0,0 km/h (0 Bft)
21/08/2018 02:20 18,0 C 88 % 1019,4 hPa 0,0 mm 0,0 km/h (0 Bft) E 97 0 min 0,000 mm 0 W/m 16,0 C 18,0 C 0,0 km/h (0 Bft)
21/08/2018 02:15 18,1 C 87 % 1019,3 hPa 0,0 mm 0,0 km/h (0 Bft) E 97 0 min 0,000 mm 0 W/m 15,9 C 18,1 C 0,0 km/h (0 Bft)
21/08/2018 02:10 18,2 C 87 % 1019,4 hPa 0,0 mm 0,0 km/h (0 Bft) E 97 0 min 0,000 mm 0 W/m 16,0 C 18,2 C 0,0 km/h (0 Bft)
21/08/2018 02:05 18,3 C 87 % 1019,4 hPa 0,0 mm 0,0 km/h (0 Bft) E 97 0 min 0,000 mm 0 W/m 16,1 C 18,3 C 0,0 km/h (0 Bft)
21/08/2018 02:00 18,4 C 87 % 1019,4 hPa 0,0 mm 0,0 km/h (0 Bft) E 97 0 min 0,026 mm 0 W/m 16,2 C 18,4 C 0,0 km/h (0 Bft)
21/08/2018 01:55 18,5 C 86 % 1019,5 hPa 0,0 mm 0,0 km/h (0 Bft) E 97 0 min 0,000 mm 0 W/m 16,1 C 18,5 C 0,0 km/h (0 Bft)
21/08/2018 01:50 18,6 C 86 % 1019,5 hPa 0,0 mm 0,0 km/h (0 Bft) E 97 0 min 0,000 mm 0 W/m 16,2 C 18,6 C 0,0 km/h (0 Bft)
21/08/2018 01:45 18,6 C 86 % 1019,5 hPa 0,0 mm 0,0 km/h (0 Bft) E 97 0 min 0,000 mm 0 W/m 16,2 C 18,6 C 0,0 km/h (0 Bft)
21/08/2018 01:40 18,7 C 85 % 1019,5 hPa 0,0 mm 0,0 km/h (0 Bft) E 97 0 min 0,000 mm 0 W/m 16,1 C 18,7 C 0,0 km/h (0 Bft)
21/08/2018 01:35 18,7 C 85 % 1019,6 hPa 0,0 mm 0,0 km/h (0 Bft) E 97 0 min 0,000 mm 0 W/m 16,1 C 18,7 C 0,0 km/h (0 Bft)
21/08/2018 01:30 18,8 C 84 % 1019,5 hPa 0,0 mm 0,0 km/h (0 Bft) E 97 0 min 0,000 mm 0 W/m 16,0 C 18,8 C 0,0 km/h (0 Bft)
21/08/2018 01:25 18,9 C 84 % 1019,6 hPa 0,0 mm 0,0 km/h (0 Bft) E 97 0 min 0,000 mm 0 W/m 16,1 C 18,9 C 0,0 km/h (0 Bft)
21/08/2018 01:20 19,1 C 83 % 1019,6 hPa 0,0 mm 0,0 km/h (0 Bft) E 97 0 min 0,000 mm 0 W/m 16,1 C 19,1 C 0,0 km/h (0 Bft)
21/08/2018 01:15 19,2 C 83 % 1019,6 hPa 0,0 mm 0,0 km/h (0 Bft) E 97 0 min 0,000 mm 0 W/m 16,2 C 19,2 C 0,0 km/h (0 Bft)
21/08/2018 01:10 19,4 C 82 % 1019,6 hPa 0,0 mm 0,0 km/h (0 Bft) E 97 0 min 0,000 mm 0 W/m 16,2 C 19,4 C 0,0 km/h (0 Bft)
21/08/2018 01:05 19,6 C 82 % 1019,6 hPa 0,0 mm 0,0 km/h (0 Bft) E 97 0 min 0,000 mm 0 W/m 16,4 C 19,6 C 0,0 km/h (0 Bft)
21/08/2018 01:00 19,8 C 81 % 1019,6 hPa 0,0 mm 0,0 km/h (0 Bft) E 97 0 min 0,025 mm 0 W/m 16,4 C 19,8 C 0,0 km/h (0 Bft)
21/08/2018 00:55 20,1 C 80 % 1019,6 hPa 0,0 mm 0,0 km/h (0 Bft) E 97 0 min 0,000 mm 0 W/m 16,5 C 20,1 C 0,0 km/h (0 Bft)
21/08/2018 00:50 20,3 C 79 % 1019,6 hPa 0,0 mm 0,0 km/h (0 Bft) E 97 0 min 0,000 mm 0 W/m 16,5 C 20,3 C 0,0 km/h (0 Bft)
21/08/2018 00:45 20,6 C 78 % 1019,6 hPa 0,0 mm 0,1 km/h (0 Bft) E 97 0 min 0,000 mm 0 W/m 16,6 C 20,6 C 1,6 km/h (1 Bft)
21/08/2018 00:40 20,8 C 77 % 1019,6 hPa 0,0 mm 0,0 km/h (0 Bft) E 97 0 min 0,000 mm 0 W/m 16,6 C 20,8 C 1,6 km/h (1 Bft)
21/08/2018 00:35 21,0 C 77 % 1019,7 hPa 0,0 mm 0,0 km/h (0 Bft) E 97 0 min 0,000 mm 0 W/m 16,8 C 21,0 C 1,6 km/h (1 Bft)
21/08/2018 00:30 21,1 C 77 % 1019,7 hPa 0,0 mm 0,0 km/h (0 Bft) E 97 0 min 0,000 mm 0 W/m 16,9 C 21,1 C 0,0 km/h (0 Bft)
21/08/2018 00:25 21,2 C 77 % 1019,7 hPa 0,0 mm 0,0 km/h (0 Bft) E 97 0 min 0,000 mm 0 W/m 17,0 C 21,2 C 0,0 km/h (0 Bft)
21/08/2018 00:20 21,2 C 76 % 1019,6 hPa 0,0 mm 0,0 km/h (0 Bft) E 97 0 min 0,000 mm 0 W/m 16,8 C 21,2 C 0,0 km/h (0 Bft)
21/08/2018 00:15 21,3 C 76 % 1019,6 hPa 0,0 mm 0,0 km/h (0 Bft) E 97 0 min 0,000 mm 0 W/m 16,9 C 21,3 C 1,6 km/h (1 Bft)
21/08/2018 00:10 21,3 C 76 % 1019,7 hPa 0,0 mm 0,0 km/h (0 Bft) E 97 0 min 0,000 mm 0 W/m 16,9 C 21,3 C 1,6 km/h (1 Bft)
21/08/2018 00:05 21,2 C 77 % 1019,6 hPa 0,0 mm 0,0 km/h (0 Bft) E 97 0 min 0,000 mm 0 W/m 17,0 C 21,2 C 1,6 km/h (1 Bft)
21/08/2018 00:00 21,1 C 77 % 1019,6 hPa 0,0 mm 0,0 km/h (0 Bft) E 97 0 min 0,000 mm 0 W/m 16,9 C 21,1 C 0,0 km/h (0 Bft)
_ Min-Heure 07:05 14:05 14:10 - 00:00 - - - - - 07:05 07:05 00:00
Minimum _ 15,3 C 51 % 1017,1 hPa - 0,0 km/h (0 Bft) - - - - - 14,5 C 15,3 C 0,0 km/h (0 Bft)
_ Max-Heure 14:10 07:25 00:10 00:00 13:40 - - 08:40 14:00 13:55 13:00 14:05 12:55
Maximum _ 30,4 C 96 % 1019,7 hPa 0,0 mm 4,7 km/h
O-SO (1 Bft)
- - 5 min 0,559 mm 817 W/m 19,2 C 30,3 C 9,7 km/h
NO (2 Bft)
Moyenne _ 20,3 C 81 % 1018,6 hPa #0,0 mm 0,5 km/h (0 Bft) E-NE - #5:35 h #2,007 mm 460 W/m 16,7 C 20,3 C 1,9 km/h (1 Bft)